Morrisville, NC

12:25 PM EST on December 08, 2016 (GMT -0500)
Raleigh-Durham International

Weather History for KRDU - January, 2012

Change the Weather History Date:

Saturday, January 21, 2012

  Actual Average Record
Temperature  
Mean Temperature 47 °F 41 °F  
Max Temperature 58 °F 51 °F 75 °F (1933)
Min Temperature 36 °F 31 °F -9 °F (1985)
Degree Days  
Heating Degree Days 18 24  
Month to date heating degree days 421 510  
Since 1 July heating degree days 1459 1761  
Cooling Degree Days 0 0  
Month to date cooling degree days 0 0  
Year to date cooling degree days 0 0  
Moisture  
Dew Point 49 °F    
Average Humidity 93    
Maximum Humidity 100    
Minimum Humidity 86    
Precipitation  
Precipitation 0.42 in 0.11 in 1.44 in (1979)
Month to date precipitation 1.74 2.38  
Year to date precipitation 1.74 2.38  
Snow  
Snow 0.00 in 0.10 in 1.20 in (1961)
Month to date snowfall 0.0 1.9  
Since 1 July snowfall 0.0 2.6  
Snow Depth 0.00 in    
Sea Level Pressure  
Sea Level Pressure 29.98 in    
Wind  
Wind Speed 8 mph (SW)    
Max Wind Speed 18 mph    
Max Gust Speed 24 mph    
Visibility 6 miles    
Events Rain    
T = Trace of Precipitation, MM = Missing Value Source: NWS Daily Summary

Daily Weather History Graph

Daily Weather History Graph

Search for Another Location

Airport or City:

Trip Planner

Search our weather history database for the weather conditions in past years. The results will help you decide how hot, cold, wet, or windy it might be!

Date:

Astronomy

Jan. 21, 2012 Rise Set
Actual Time 7:22 AM EST 5:30 PM EST
Civil Twilight 6:55 AM EST 5:57 PM EST
Nautical Twilight 6:23 AM EST 6:29 PM EST
Astronomical Twilight 5:53 AM EST 6:59 PM EST
Moon 5:50 AM EST (1/21) 4:05 PM EST (1/21)
Length of Visible Light 11h 02m
Length of Day
10h 07m
Waning Crescent, 3% of the Moon is Illuminated
Jan 21
Waning Crescent
Jan 23
New
Jan 30
First Quarter
Feb 7
Full
Feb 14
Last Quarter

Hourly Weather History & Observations

Time (EST) Temp. Windchill Dew Point Humidity Pressure Visibility Wind Dir Wind Speed Gust Speed Precip Events Conditions
12:18 AM 46.4 °F 44.3 °F 44.6 °F 93% 30.11 in 1.0 mi Variable 4.6 mph - 0.01 in Rain Rain
12:51 AM 46.0 °F 43.1 °F 45.0 °F 96% 30.09 in 1.0 mi SE 5.8 mph - 0.05 in Rain Light Rain
1:51 AM 46.9 °F - 45.0 °F 93% 30.06 in 1.0 mi SE 4.6 mph - 0.06 in   Light Drizzle
2:24 AM 46.4 °F 44.3 °F 44.6 °F 93% 30.05 in 2.0 mi South 4.6 mph - 0.00 in   Overcast
2:51 AM 46.9 °F - 45.0 °F 93% 30.03 in 2.0 mi Variable 4.6 mph - 0.00 in   Overcast
3:51 AM 48.0 °F - 46.0 °F 93% 30.00 in 2.0 mi South 5.8 mph - N/A   Overcast
4:51 AM 48.9 °F - 46.9 °F 93% 29.96 in 2.0 mi South 9.2 mph - 0.01 in Rain Light Rain
5:11 AM 50.0 °F - 46.4 °F 87% 29.94 in 2.0 mi South 11.5 mph - 0.00 in   Overcast
5:41 AM 51.8 °F - 48.2 °F 88% 29.94 in 10.0 mi SSW 11.5 mph - 0.00 in   Mostly Cloudy
5:51 AM 52.0 °F - 50.0 °F 93% 29.94 in 10.0 mi SSW 10.4 mph 21.9 mph 0.00 in   Mostly Cloudy
6:11 AM 51.8 °F - 50.0 °F 94% 29.93 in 10.0 mi SSW 10.4 mph 19.6 mph N/A   Overcast
6:51 AM 53.1 °F - 51.1 °F 93% 29.93 in 10.0 mi SSW 15.0 mph 21.9 mph N/A   Overcast
7:51 AM 54.0 °F - 53.1 °F 97% 29.92 in 7.0 mi SSW 16.1 mph - 0.11 in Rain Light Rain
8:13 AM 53.6 °F - 53.6 °F 100% 29.92 in 10.0 mi SW 11.5 mph - 0.00 in   Overcast
8:51 AM 54.0 °F - 52.0 °F 93% 29.93 in 10.0 mi SW 10.4 mph - 0.00 in   Overcast
9:20 AM 53.6 °F - 51.8 °F 94% 29.92 in 10.0 mi SW 15.0 mph - N/A   Mostly Cloudy
9:51 AM 57.0 °F - 54.0 °F 89% 29.92 in 10.0 mi SW 13.8 mph - N/A   Overcast
10:51 AM 57.9 °F - 53.1 °F 84% 29.92 in 10.0 mi WSW 6.9 mph - 0.00 in   Overcast
11:51 AM 57.0 °F - 54.0 °F 89% 29.91 in 3.0 mi WNW 4.6 mph - N/A   Overcast
12:11 PM 57.2 °F - 53.6 °F 88% 29.90 in 3.0 mi West 3.5 mph - N/A   Overcast
12:51 PM 55.9 °F - 54.0 °F 93% 29.89 in 3.0 mi WNW 3.5 mph - N/A   Overcast
1:51 PM 54.0 °F - 51.1 °F 90% 29.87 in 3.0 mi SW 4.6 mph - N/A   Overcast
2:51 PM 55.0 °F - 53.1 °F 93% 29.88 in 3.0 mi NNW 3.5 mph - N/A   Overcast
3:51 PM 53.1 °F - 51.1 °F 93% 29.91 in 8.0 mi Calm Calm - 0.00 in Rain Light Rain
4:51 PM 54.0 °F - 52.0 °F 93% 29.92 in 4.0 mi Calm Calm - 0.05 in Rain Light Rain
5:51 PM 53.1 °F - 52.0 °F 96% 29.97 in 4.0 mi Calm Calm - 0.04 in Rain Light Rain
6:29 PM 53.6 °F - 51.8 °F 94% 30.00 in 4.0 mi North 6.9 mph - 0.05 in Rain Light Rain
6:51 PM 52.0 °F - 51.1 °F 97% 30.02 in 2.0 mi Variable 4.6 mph - 0.09 in Rain Light Rain
7:17 PM 51.8 °F - 51.8 °F 100% 30.04 in 6.0 mi North 9.2 mph - N/A   Overcast
7:51 PM 48.0 °F - 46.0 °F 93% 30.06 in 10.0 mi NNE 8.1 mph - 0.01 in   Overcast
8:51 PM 45.0 °F 38.9 °F 41.0 °F 86% 30.08 in 10.0 mi NE 12.7 mph 19.6 mph N/A   Overcast
9:51 PM 39.9 °F 32.9 °F 37.9 °F 93% 30.15 in 10.0 mi NNE 11.5 mph - N/A   Overcast
10:51 PM 37.9 °F 29.6 °F 36.0 °F 93% 30.17 in 10.0 mi NE 13.8 mph 19.6 mph N/A   Mostly Cloudy
11:51 PM 35.6 °F 27.5 °F 33.8 °F 93% 30.20 in 10.0 mi NNE 11.5 mph 19.6 mph N/A   Mostly Cloudy